CZ-6A DEB, 61094

Orbit data source: Space-Track

CZ-6A DEB, 61094 is space debris in LEO originally from a launch on Tue, 06 Aug 2024 UTC launched from the Taiyaun Space Center, China (TSC). Debris objects in space refer to the collection of defunct objects orbiting the Earth. Examples of debris include non-operational satellites, rocket bodies, and fragments generated from explosions, collisions, or faulty payload assembly.

Loading next visibility...
Identifier
61094, 2024-140NL
Orbit
LEO
Country
Flag of CNCN / PRC
Related business
Manufacturer
SAST
Mission
Spacecraft
Bus & Motor
Unknown
Mass
Unknown
Launch date (UTC)
2024-08-06 (1 year ago)
Launch vehicle
Unknown
Launch site
Taiyaun Space Center, China (TSC)
Object type
Payload
Rocket body
Debris
Shape & HBR
Unknown shape, 0.2 m
Radar Cross Section
Small (<0.1 m²)

Expand to show TLE details & history
Last TLE update: 11 hours ago

TLE from 11 hours ago
0 CZ-6A DEB
1 61094U 24140NL  25354.78875365  .00000289  00000-0  13441-3 0  9994
2 61094  89.0136 295.7934 0057817  44.1258 316.4522 14.16997352 67867
Epoch: 2025-12-20T18:55Z
TLE epoch observation values (Epoch: 2025-12-20T18:55:48.315Z)
Latitude
0.00004°
Longitude
-77.76843°
Altitude
808.454 km
Speed
7.465 km/s
True Right ascension
19h 43m 10s
True Declination
0° 00' 00"
Sunlit
Object was in daylight at epoch
Visualization orbit readout
Latitude
Unknown
Longitude
Unknown
Altitude
Unknown
Speed
Unknown
Apparent Right ascension
Unknown
Apparent Declination
Unknown
Sunlit
N/A
Visualization observer readout
Local Sidereal Time
05:19:05
Azimuth
Unknown
Elevation
Unknown
Doppler factor
Unknown
Orbital elements
Apogee altitude
874.17 km
Perigee altitude
790.791 km
Semi-major axis
7,210.618 km
Eccentricity
0.00578
Inclination
89.0136°
RAAN
295.7934°
Arg. of periapsis
44.1258°
True anomaly
315.99334°
Mean anomaly
316.4522°
Eccentric anomaly
316.22301°
Mean motion
3.54474 °/min
Orbital period
101.56 mins
BSTAR
0.00013441
Loading maneuver chart data...
Computing Atmospheric mass density...
Loading historical data...
Loading historical data...
Loading historical data...
Loading historical data...
Loading historical data...
Loading historical data...
Loading historical data...

Documentation

Showing up to 5 results
|